Погода в Хатырке

Россия / Чукотский автономный округ     62°03′41″N   175°17′19″E
В апреле 2022 года жителям России запретили посещать сайт meteo.paraplan.net по решению Генеральной прокуратуры. Аудитория сайта уменьшилась в 10 раз. Владельцы сайта не видят смысла в поддержке погодного сервера в таких условиях. Сайт будет закрыт в октябре.
темп.,
°C
ветер,
м/с
пор.,
м/с
влажн.,
%
обл.,
%
осадки,
мм/ч
давл.,
гПа
погр.,
м
26 сентября, пн
пн2600:00+2ссз35530 0.0 1020512
03:00+1ссз33550 0.0 1020283
06:000с45610 0.0 1019271
09:00+1с34555 0.0 1019356
12:00+3в12503 0.0 1018567
15:00+3вюв22521 0.0 1016463
18:00+2всв11555 0.0 1015164
21:00+2ссв235575 0.0 1015271
27 сентября, вт
вт2700:00+2с225421 0.0 1013216
03:00+1ссз455828 0.0 1012169
06:000ссз45597 0.0 1011169
09:00+2ссз45521 0.0 1010313
12:00+4с564919 0.0 1009818
15:00+5ссз784851 0.0 10081318
18:00+3ссз69575 0.0 1008643
21:00+2ссз57625 0.0 1009417
28 сентября, ср
ср2800:00+2ссз5766100 0.0 1008293
03:00+1ссз566884 0.0 1008267
06:00+1ссз567062 0.0 1009254
09:00+2ссз56665 0.0 1009349
12:00+4с55595 0.0 1009624
15:00+5ссз34537 0.0 1009938
18:00+3ссз446089 0.0 1009329
21:00+2ссз446597 0.0 1011275
29 сентября, чт
чт2900:00+1ссз447011 0.0 1011203
03:00+1ссз44705 0.0 1012196
06:000ссз44734 0.0 1013174
09:00+2ссз46664 0.0 1014338
12:00+4ссз33555 0.0 1014589
15:00+5зсз12495 0.0 1015826
18:00+3юз33614 0.0 1016279
21:00+3зюз33635 0.0 1017298
30 сентября, пт
пт3000:00+3зюз34635 0.0 1017401
03:00+3юз246455 0.0 1017479
06:00+3ююз346814 0.0 1017487
09:00+5ю3471100 0.0 1018609
12:00+5ююв4575100 0.0 1017682
15:00+5ююв4580100 0.0 1016491
18:00+5ююв4578100 0.0 1016444
21:00+5юв3477100 0.0 1016383